[[{"header":{"parameterUnit":"m.s-1","parameterCategory":1,"la1":30.2991,"la2":30.254,"lo1":-89.0895,"lo2":-89.0444,"dy":0.0017,"dx":0.0017,"nx":28,"ny":28,"refTime":"2024-08-07T03:00:00:Z","depth":0,"parameterNumber":2,"parameterNumberName":"U-component_of_WINDS"},"data":[0,0,0,0,0,0,0,0,0,0,0,0,0,0,0,0,0,0,0,0,0,0,0,0,0,0,0,0,0,0,0,0,0,0,0,0,0,0,0,0,0,0,0,0,0,0,0,0,0,0,0,0,0,0,0,0,0,0,2.8027,2.8027,0,2.8077,2.8078,2.8079,2.8083,2.8082,2.8082,2.8081,2.8135,2.8136,2.8138,0,0,0,0,0,0,0,0,0,0,0,0,0,2.7938,2.794,2.8027,2.8028,2.8028,2.8077,2.8078,2.8079,2.8083,2.8082,2.8081,2.8081,2.8134,2.8136,2.8139,0,0,0,0,0,0,0,0,0,0,0,0,0,2.7981,2.794,2.8027,2.8036,2.8037,2.8077,2.8078,2.8079,2.8083,2.8082,2.8081,2.808,2.8133,2.8136,2.8139,2.8173,0,0,2.8148,2.8149,0,0,0,0,0,0,0,0,2.7979,2.7985,2.8034,2.8036,2.8037,2.8073,2.8066,2.8111,2.8083,2.8066,2.8081,2.808,2.8115,2.8119,2.813,2.8176,2.8178,2.8148,2.815,2.8151,2.8152,0,0,0,0,0,0,0,2.7976,2.7983,2.8047,2.8035,2.8037,2.8039,2.8044,2.8075,2.8094,2.8067,2.8068,2.8073,2.8115,2.8128,2.8132,2.8179,2.8148,2.815,2.8152,2.8153,2.8259,2.826,0,0,0,0,0,0,2.7971,2.798,2.8045,2.8048,2.8005,2.8041,2.8047,2.8062,2.8094,2.8098,2.8074,2.8073,2.8123,2.8128,2.8134,2.8178,2.8151,2.8154,2.8155,2.8258,2.8259,2.826,0,0,0,0,0,0,2.7969,2.7977,2.8043,2.8014,2.8023,2.8044,2.8061,2.8064,2.8076,2.8099,2.8103,2.8083,2.8123,2.813,2.8164,2.818,2.8155,2.8158,2.8257,2.8258,2.826,2.8267,0,0,0,0,0,0,2.7966,2.7976,2.7988,2.8015,2.8025,2.8072,2.8062,2.8065,2.8081,2.808,2.8108,2.8112,2.8123,2.816,2.8167,2.8184,2.816,2.8255,2.8257,2.8259,2.8265,2.8268,2.8271,0,0,0,0,0,2.7963,2.7988,2.7989,2.7996,2.804,2.8072,2.8078,2.8089,2.8082,2.8095,2.8111,2.8111,2.8177,2.8163,2.8171,2.8189,2.8254,2.8257,2.8259,2.8264,2.8268,2.8271,0,0,0,0,0,0,2.7962,2.7991,2.7992,2.8026,2.8047,2.8073,2.809,2.8092,2.8116,2.8115,2.8128,2.8135,2.8169,2.8183,2.8167,2.8226,2.8215,2.8219,2.8216,2.822,2.8223,2.8219,2.8162,0,0,0,0,0,2.7966,2.7989,2.8013,2.8041,2.8051,2.8069,2.8083,2.809,2.8112,2.8121,2.8139,2.8161,2.8188,2.8204,2.8229,2.8267,2.8275,2.8284,2.8287,2.8289,2.8293,2.8317,2.8322,2.8268,2.8268,2.8268,0,0,2.7974,2.7992,2.8006,2.8041,2.8058,2.8083,2.8076,2.8102,2.8121,2.8125,2.8159,2.8174,2.82,2.8237,2.8254,2.8249,2.8309,2.8292,2.8294,2.8296,2.832,2.8325,2.8329,2.827,2.8269,2.8269,0,0,2.8001,2.8016,2.8042,2.806,2.8086,2.8098,2.8104,2.8131,2.814,2.8175,2.8179,2.8203,2.8247,2.8266,2.8282,2.832,2.8322,2.8328,2.8343,2.8367,2.8371,2.8375,2.839,2.8396,2.8331,2.8331,2.8331,0,2.8007,2.8044,2.8055,2.8082,2.8098,2.8104,2.8131,2.8148,2.8181,2.8193,2.8187,2.8244,2.8262,2.8305,2.8315,2.8326,2.8336,2.8324,2.8369,2.8373,2.8377,2.8392,2.8398,2.8332,2.8332,2.8332,2.8332,0,2.8052,2.8078,2.8096,2.8128,2.8146,2.8173,2.819,2.8208,2.8214,2.8228,2.8264,2.8286,2.8317,2.8328,2.8334,2.8373,2.8369,2.8366,2.8355,2.8382,2.8397,2.8403,2.8333,2.8333,2.8332,2.8332,0,0,2.8078,2.8118,2.8125,2.8141,2.8171,2.8192,2.822,2.8251,2.8267,2.829,2.8316,2.8354,2.8352,2.837,2.8379,2.8399,2.8431,2.8394,2.8395,2.8401,2.8478,2.8481,2.8488,2.8433,2.8434,2.8435,2.8477,0,2.811,2.816,2.8172,2.8216,2.8241,2.8248,2.8274,2.8296,2.831,2.8335,2.8351,2.8379,2.8373,2.8384,2.8405,2.8423,2.8447,2.842,2.8459,2.846,2.8453,2.8495,2.8498,2.8536,2.8482,2.8483,2.8484,0,2.8153,2.8179,2.8224,2.8254,2.8265,2.8288,2.8318,2.8341,2.8368,2.8377,2.8398,2.8406,2.8438,2.8426,2.8472,2.8453,2.847,2.8482,2.8484,2.8488,2.8474,2.8502,2.8549,2.8555,2.8493,2.8492,2.8491,0,2.8171,2.8216,2.825,2.8263,2.8298,2.8314,2.8329,2.8355,2.8374,2.8401,2.8413,2.8444,2.8461,2.8485,2.8502,2.8491,2.8548,2.8536,2.8558,2.8557,2.8569,2.8569,2.862,2.8578,2.8578,2.8578,2.8578,0,2.8205,2.8234,2.8258,2.8279,2.8312,2.8327,2.836,2.8376,2.8399,2.8425,2.8433,2.8457,2.8477,2.8504,2.8518,2.8555,2.8563,2.8572,2.8576,2.8572,2.8571,2.8584,2.8582,2.858,2.8579,2.8579,2.8579,0,2.823,2.8247,2.8285,2.8316,2.8324,2.8347,2.8375,2.8397,2.8412,2.8444,2.8453,2.8477,2.8511,2.8529,2.8571,2.858,2.8623,2.8624,2.8614,2.8615,2.8637,2.8635,2.87,2.871,2.866,2.866,2.866,0,2.8251,2.8273,2.8307,2.8325,2.8341,2.8369,2.8388,2.8405,2.8425,2.8459,2.8477,2.8511,2.8539,2.8592,2.8615,2.8647,2.8651,2.8671,2.8656,2.8652,2.8653,2.8652,2.8656,2.8674,2.8674,2.8675,2.8675,0,2.8288,2.8296,2.8323,2.8354,2.8377,2.8403,2.8428,2.8442,2.8463,2.8486,2.852,2.8542,2.8585,2.862,2.8655,2.8673,2.8679,2.868,2.8687,2.8684,2.8678,2.8684,2.8622,2.8678,2.8678,2.8678,2.8677,2.8677,2.8313,2.8334,2.8362,2.8393,2.8414,2.8438,2.846,2.8479,2.8508,2.8544,2.8553,2.8589,2.8619,2.8667,2.8686,2.8716,2.8713,2.8722,2.8725,2.8728,2.873,2.8672,2.8723,2.8723,2.8722,2.8722,2.8722,0,2.8352,2.8371,2.8399,2.8435,2.846,2.8462,2.8491,2.8512,2.8544,2.8571,2.8599,2.864,2.8674,2.87,2.8735,2.8755,2.8759,2.8764,2.8763,2.8768,2.873,2.8721,2.8761,2.8761,2.8761,2.8761,2.876,2.876,2.8375,2.8412,2.8424,2.8472,2.8491,2.8527,2.8544,2.8567,2.8589,2.8634,2.8662,2.8679,2.8706,2.8744,2.8777,2.8784,2.8797,2.8803,2.881,2.8774,2.877,2.8766,2.8758,2.8805,2.8805,2.8846,2.8847,2.8847]},{"header":{"parameterUnit":"m.s-1","parameterCategory":1,"la1":30.2991,"la2":30.254,"lo1":-89.0895,"lo2":-89.0444,"dy":0.0017,"dx":0.0017,"nx":28,"ny":28,"refTime":"2024-08-07T03:00:00:Z","depth":0,"parameterNumber":3,"parameterNumberName":"V-component_of_WINDS"},"data":[0,0,0,0,0,0,0,0,0,0,0,0,0,0,0,0,0,0,0,0,0,0,0,0,0,0,0,0,0,0,0,0,0,0,0,0,0,0,0,0,0,0,0,0,0,0,0,0,0,0,0,0,0,0,0,0,0,0,-2.641,-2.641,0,-2.6412,-2.6412,-2.6413,-2.6458,-2.646,-2.6461,-2.6462,-2.646,-2.6458,-2.6457,0,0,0,0,0,0,0,0,0,0,0,0,0,-2.6441,-2.644,-2.641,-2.641,-2.641,-2.6412,-2.6412,-2.6413,-2.6458,-2.646,-2.6461,-2.6462,-2.646,-2.6459,-2.6457,0,0,0,0,0,0,0,0,0,0,0,0,0,-2.6433,-2.6439,-2.641,-2.6433,-2.6435,-2.6412,-2.6412,-2.6413,-2.6458,-2.646,-2.6461,-2.6463,-2.646,-2.6459,-2.6457,-2.641,0,0,-2.6452,-2.6451,0,0,0,0,0,0,0,0,-2.6434,-2.6432,-2.643,-2.6431,-2.6434,-2.6437,-2.6423,-2.6412,-2.6457,-2.6449,-2.6462,-2.6464,-2.645,-2.6449,-2.6446,-2.641,-2.641,-2.6451,-2.645,-2.645,-2.6449,0,0,0,0,0,0,0,-2.6434,-2.6432,-2.6411,-2.6429,-2.6432,-2.6442,-2.6443,-2.6421,-2.6439,-2.645,-2.6453,-2.6453,-2.6452,-2.6447,-2.6446,-2.641,-2.6451,-2.645,-2.6449,-2.6448,-2.6339,-2.6337,0,0,0,0,0,0,-2.6432,-2.6432,-2.6411,-2.6411,-2.6438,-2.644,-2.6441,-2.6434,-2.644,-2.6443,-2.6452,-2.6455,-2.645,-2.6448,-2.6446,-2.6393,-2.645,-2.6448,-2.6447,-2.634,-2.6338,-2.6336,0,0,0,0,0,0,-2.6433,-2.643,-2.641,-2.6423,-2.6421,-2.6438,-2.6429,-2.6433,-2.6429,-2.6441,-2.6444,-2.6444,-2.6451,-2.6449,-2.642,-2.6394,-2.6447,-2.6446,-2.6343,-2.634,-2.6337,-2.6286,0,0,0,0,0,0,-2.6433,-2.643,-2.6413,-2.6422,-2.642,-2.6385,-2.6428,-2.6432,-2.6427,-2.6431,-2.6435,-2.6437,-2.6452,-2.6422,-2.6418,-2.6392,-2.6444,-2.6345,-2.6341,-2.6338,-2.629,-2.6282,-2.6275,0,0,0,0,0,-2.6434,-2.6397,-2.6412,-2.6409,-2.64,-2.6383,-2.6382,-2.6401,-2.6424,-2.6407,-2.6415,-2.6437,-2.6398,-2.6419,-2.6415,-2.6388,-2.6347,-2.6342,-2.6338,-2.6294,-2.6284,-2.6275,0,0,0,0,0,0,-2.6381,-2.6398,-2.6415,-2.638,-2.638,-2.6391,-2.637,-2.639,-2.6382,-2.6387,-2.6409,-2.641,-2.6377,-2.638,-2.6403,-2.6344,-2.6376,-2.6371,-2.6344,-2.6334,-2.6327,-2.6327,-2.6443,0,0,0,0,0,-2.6366,-2.6353,-2.6368,-2.6335,-2.6335,-2.6352,-2.6346,-2.6361,-2.6361,-2.6361,-2.6367,-2.6365,-2.6353,-2.6344,-2.6333,-2.6291,-2.6293,-2.6271,-2.6264,-2.6257,-2.6252,-2.6232,-2.6222,-2.6322,-2.6322,-2.6322,0,0,-2.6334,-2.6341,-2.6331,-2.6325,-2.6327,-2.6312,-2.6352,-2.6333,-2.6322,-2.6358,-2.6332,-2.6336,-2.6336,-2.6301,-2.6286,-2.6302,-2.6225,-2.6252,-2.6247,-2.6245,-2.6226,-2.6217,-2.6208,-2.632,-2.632,-2.6321,0,0,-2.6267,-2.6271,-2.6245,-2.6247,-2.6251,-2.6263,-2.6257,-2.6265,-2.627,-2.6245,-2.6272,-2.6258,-2.6236,-2.6235,-2.6232,-2.6167,-2.6187,-2.6163,-2.6122,-2.6102,-2.6094,-2.6088,-2.6065,-2.6057,-2.6158,-2.6158,-2.6158,0,-2.6225,-2.6205,-2.6229,-2.621,-2.6206,-2.624,-2.6214,-2.6214,-2.6213,-2.6209,-2.6228,-2.6202,-2.6204,-2.617,-2.6155,-2.6151,-2.6144,-2.6162,-2.6094,-2.6087,-2.6081,-2.606,-2.6051,-2.6155,-2.6155,-2.6155,-2.6156,0,-2.6154,-2.6139,-2.6118,-2.6118,-2.6113,-2.609,-2.611,-2.6101,-2.6117,-2.6127,-2.6102,-2.6106,-2.6097,-2.609,-2.6105,-2.6059,-2.6069,-2.609,-2.6123,-2.6068,-2.6049,-2.6041,-2.6151,-2.6152,-2.6153,-2.6153,0,0,-2.6052,-2.6068,-2.606,-2.6061,-2.6069,-2.6058,-2.6037,-2.603,-2.6022,-2.6021,-2.6004,-2.5985,-2.6006,-2.6002,-2.6017,-2.6,-2.5949,-2.6024,-2.6024,-2.601,-2.5899,-2.5883,-2.5873,-2.5963,-2.5962,-2.596,-2.59,0,-2.5987,-2.5954,-2.5976,-2.5939,-2.5926,-2.5959,-2.5941,-2.5943,-2.5953,-2.5942,-2.5952,-2.5939,-2.5967,-2.5966,-2.595,-2.5959,-2.5927,-2.5963,-2.5946,-2.5946,-2.5945,-2.5863,-2.5845,-2.5787,-2.5892,-2.5891,-2.589,0,-2.5907,-2.5905,-2.5867,-2.5879,-2.5875,-2.5858,-2.5855,-2.5845,-2.5848,-2.5857,-2.5854,-2.5874,-2.5854,-2.5886,-2.5859,-2.5883,-2.5877,-2.5881,-2.5879,-2.5878,-2.5914,-2.5859,-2.5769,-2.5761,-2.5878,-2.5879,-2.588,0,-2.5837,-2.5825,-2.5801,-2.5801,-2.5814,-2.5802,-2.5807,-2.5812,-2.5808,-2.5804,-2.5802,-2.5795,-2.5792,-2.5786,-2.5804,-2.5826,-2.5774,-2.5808,-2.578,-2.5779,-2.5766,-2.5767,-2.5674,-2.5763,-2.5763,-2.5763,-2.5764,0,-2.5763,-2.5738,-2.577,-2.5755,-2.5729,-2.5754,-2.5727,-2.5735,-2.574,-2.5727,-2.5755,-2.5742,-2.5767,-2.5756,-2.5769,-2.5745,-2.5743,-2.5748,-2.5752,-2.5746,-2.5745,-2.5742,-2.5746,-2.5761,-2.5762,-2.5762,-2.5762,0,-2.568,-2.57,-2.5676,-2.5692,-2.5695,-2.5675,-2.5688,-2.5675,-2.5687,-2.567,-2.5668,-2.5686,-2.5675,-2.5693,-2.5683,-2.5693,-2.5659,-2.5669,-2.5658,-2.5661,-2.5632,-2.5634,-2.5534,-2.5522,-2.5618,-2.5618,-2.5617,0,-2.5631,-2.5613,-2.5628,-2.5622,-2.5626,-2.5616,-2.5612,-2.5637,-2.5632,-2.5636,-2.5622,-2.5614,-2.5609,-2.5589,-2.5601,-2.5594,-2.5604,-2.557,-2.5603,-2.5598,-2.5604,-2.5605,-2.5604,-2.5562,-2.5561,-2.556,-2.556,0,-2.5542,-2.5554,-2.5548,-2.5546,-2.5542,-2.5541,-2.5542,-2.5536,-2.5562,-2.5555,-2.5545,-2.5541,-2.5533,-2.5525,-2.5521,-2.5525,-2.5546,-2.5549,-2.5542,-2.5535,-2.553,-2.5533,-2.5639,-2.5551,-2.5552,-2.5552,-2.5553,-2.5553,-2.5475,-2.5461,-2.547,-2.5463,-2.5468,-2.5469,-2.5458,-2.547,-2.5463,-2.5459,-2.5474,-2.5461,-2.5467,-2.5465,-2.5467,-2.5456,-2.5471,-2.5461,-2.5459,-2.5456,-2.5451,-2.5532,-2.5456,-2.5456,-2.5456,-2.5456,-2.5457,0,-2.5388,-2.5396,-2.5389,-2.5392,-2.5387,-2.541,-2.5413,-2.5407,-2.5396,-2.54,-2.5395,-2.5384,-2.5377,-2.5389,-2.5384,-2.5373,-2.5383,-2.5371,-2.5372,-2.5372,-2.5438,-2.5445,-2.5363,-2.5363,-2.5363,-2.5363,-2.5363,-2.5363,-2.5342,-2.5321,-2.5333,-2.5315,-2.5323,-2.5312,-2.5312,-2.5313,-2.5317,-2.5304,-2.5299,-2.5308,-2.5316,-2.5312,-2.5306,-2.531,-2.5306,-2.5291,-2.5298,-2.5359,-2.5368,-2.5376,-2.5383,-2.529,-2.529,-2.5233,-2.5233,-2.5232]}]]